Flag for Russia Weather past 2 weeks in Pyatigorsk, Russia

Now
77 °F

Clear.


Feels Like: 79 °F
Forecast: 65 / 90 °F
Wind: 8 mph from East

Location: Mineral'Nye Vody

Current Time: Aug 5, 2015 at 8:06:10 AM

Latest Report: Aug 5, 2015 at 7:30 AM


Visibility: N/A

Pressure: 29.92 "Hg (28.15 "Hg at 533m altitude)

Humidity: 65%

Dew point: 64 °F

Location of PyatigorskLocation

Historic Weather in Pyatigorsk — Graph

°F

Pyatigorsk temperature yesterday

Maximum temperature yesterday: 93 °F (at 3:30 PM)
Minimum temperature yesterday: 70 °F (at 1:30 AM)
Average temperature yesterday: 81 °F

Past Weeks' High & Low Weather Summary

 TemperatureHumidityPressure
High104 °F (Jul 31, 2:30 PM)94% (Jul 23, 5:00 AM)30.07 "Hg (Jul 23, 5:00 AM)
Low55 °F (Jul 21, 6:00 AM)14% (Jul 31, 2:30 PM)29.68 "Hg (Jul 27, 4:30 PM)
Average80 °F49%29.88 "Hg
* Reported Jul 21 6:00 AM — Aug 5 6:30 AM, Pyatigorsk, Weather by CustomWeather, © 2015

Note: Actual official high and low records may vary slightly from our data, if they occured in-between our weather recording intervals... More about our weather records

Advertising

Pyatigorsk weather history for previous 24 hours

 ConditionsComfort  
Time TempWeatherWind HumidityBarometerVisibility
6:30 AM
Wed, Aug 5
72 °FClear.3 mph78%29.89 "HgN/A
6:00 AM70 °FClear.6 mph83%29.92 "HgN/A
5:30 AM68 °FClear.8 mph88%29.89 "HgN/A
5:00 AM68 °FClear.8 mph88%29.89 "HgN/A
4:30 AM68 °FClear.8 mph88%29.92 "HgN/A
4:00 AM68 °FPassing clouds.10 mph88%29.92 "HgN/A
3:30 AM68 °FPassing clouds.8 mph83%29.92 "HgN/A
3:00 AM68 °FPassing clouds.10 mph83%29.92 "HgN/A
2:30 AM70 °FPassing clouds.10 mph78%29.92 "HgN/A
2:00 AM70 °FPassing clouds.6 mph78%29.89 "HgN/A
1:30 AM72 °FPassing clouds.8 mph73%29.89 "HgN/A
1:00 AM73 °FPassing clouds.8 mph69%29.92 "HgN/A
12:30 AM73 °FPassing clouds.10 mph65%29.92 "HgN/A
12:00 AM75 °FPassing clouds.10 mph61%29.92 "HgN/A
11:30 PM
Tue, Aug 4
75 °FPartly cloudy.15 mph54%29.92 "HgN/A
11:00 PM77 °FPartly cloudy.15 mph44%29.92 "HgN/A
10:30 PM77 °FPartly cloudy.13 mph39%29.92 "HgN/A
10:00 PM79 °FPartly cloudy.10 mph37%29.95 "HgN/A
9:30 PM81 °FPartly cloudy.10 mph32%29.95 "HgN/A
9:00 PM81 °FPartly cloudy.10 mph34%29.95 "HgN/A
8:30 PM82 °FPartly cloudy.10 mph30%29.95 "HgN/A
8:00 PM84 °FBroken clouds.10 mph31%29.95 "HgN/A
7:30 PM84 °FBroken clouds.10 mph33%29.92 "HgN/A
7:00 PM86 °FBroken clouds.13 mph33%29.92 "HgN/A
6:30 PM88 °FBroken clouds.15 mph33%29.89 "HgN/A
6:00 PM90 °FBroken clouds.13 mph38%29.89 "HgN/A
5:30 PM91 °FBroken clouds.10 mph36%29.92 "HgN/A
5:00 PM91 °FBroken clouds.13 mph34%29.89 "HgN/A
4:30 PM91 °FClear.15 mph34%29.89 "HgN/A
4:00 PM93 °FClear.17 mph32%29.89 "HgN/A
3:30 PM93 °FClear.15 mph32%29.92 "HgN/A
3:00 PM91 °FClear.20 mph34%29.92 "HgN/A
2:30 PM91 °FClear.15 mph34%29.92 "HgN/A
2:00 PM91 °FClear.15 mph32%29.95 "HgN/A
1:30 PM90 °FClear.13 mph36%29.95 "HgN/A
1:00 PM88 °FClear.13 mph43%29.95 "HgN/A
12:30 PM88 °FClear.13 mph43%29.95 "HgN/A
12:00 PM88 °FPartly sunny.10 mph49%29.95 "HgN/A
11:30 AM84 °FBroken clouds.8 mph58%29.98 "HgN/A
11:00 AM82 °FBroken clouds.10 mph62%29.98 "HgN/A
10:30 AM82 °FPartly sunny.8 mph62%29.98 "HgN/A
10:00 AM81 °FBroken clouds.8 mph66%29.98 "HgN/A
9:30 AM79 °FBroken clouds.10 mph74%29.98 "HgN/A
9:00 AM79 °FBroken clouds.13 mph79%29.98 "HgN/A
8:30 AM77 °FBroken clouds.13 mph79%29.98 "HgN/A
8:00 AM75 °FPartly sunny.8 mph89%29.98 "HgN/A
Weather by CustomWeather, © 2015

See weather overviewHow to use our weather pages